Regional Weather Roundup
Issued by NWS State College, PA

Current Version | Previous Version | Text Only | Print | Product List | Glossary On
Versions: 1 2 3 4 5 6 7 8 9 10 11 12 13 14 15 16 17 18 19 20 21 22 23 24 25 26 27 28 29 30 31 32 33 34 35 36 37 38 39 40 41 42 43 44 45 46 47 48 49 50
000
ASUS41 KCTP 190610
RWRCTP

REGIONAL WEATHER ROUNDUP
NATIONAL WEATHER SERVICE STATE COLLEGE PA
200 AM EDT SAT AUG 19 2017

Note: "fair" indicates few or no clouds below 12,000 feet with no
significant weather and/or obstructions to visibility.

* = STATION THAT DOES NOT REPORT PRECIPITATION /E.G. RAIN...SNOW...ETC/
    THUNDER OR FOG.

PAZ002>004-007>009-013>016-020>023-029>032-190700-
WESTERN PENNSYLVANIA

CITY           SKY/WX    TMP DP  RH WIND       PRES   REMARKS
ERIE           CLOUDY    73  60  63 W10       29.87F
MEADVILLE      PTCLDY    65  63  93 W3        29.92S
FRANKLIN*      PTCLDY    63  57  82 SW6       29.93S
NEW CASTLE     MOCLDY    63  63 100 CALM      29.92F
BEAVER COUNTY  NOT AVBL
BUTLER*        PTCLDY    63  63 100 CALM      29.93S
PITTSBURGH INT PTCLDY    68  65  90 W5        29.93S
PITTSBURGH     CLEAR     70  62  76 W8        29.92S
INDIANA*       PTCLDY    64  64 100 CALM      29.95S
LATROBE        CLEAR     66  64  94 SW6       29.94R
WASHINGTON CO* MOCLDY    64  63  94 W6        29.94S
$$

PAZ004>006-010>012-017>019-024>028-033>037-041-042-045-046-049>053-190700-
CENTRAL PENNSYLVANIA

CITY           SKY/WX    TMP DP  RH WIND       PRES   REMARKS
BRADFORD       CLEAR     64  61  90 VRB3      29.91F
DUBOIS         CLEAR     62  59  90 SW3       29.91F
CLEARFIELD     CLEAR     67  63  87 SW5       29.91F
JOHNSTOWN      CLEAR     66  62  87 W7        29.95F
ALTOONA        CLEAR     63  63 100 S3        29.93S
STATE COLLEGE  CLEAR     68  63  84 CALM      29.89S
WILLIAMSPORT   FOG       69  69 100 NW5       29.83S VSB 1
SELINSGROVE    PTCLDY    66  66 100 CALM      29.85R FOG
FT INDIANTOWN  FOG       73  73 100 CALM      29.84S VSB 1/4
CAPITAL CITY   CLEAR     75  72  90 W7        29.84S
HARRISBURG     MOCLDY    75  74  96 CALM      29.83S
YORK           CLEAR     73  73 100 W3        29.85F
$$

PAZ038>040-043-044-047-048-054-055-060>062-067>071-190700-
EASTERN PENNSYLVANIA

CITY           SKY/WX    TMP DP  RH WIND       PRES   REMARKS
SCRANTON       PTCLDY    72  70  93 MISG      29.84F
MOUNT POCONO   CLOUDY    68  68 100 W8        29.87F
ALLENTOWN      CLOUDY    73  71  93 MISG      29.82S
QUAKERTOWN*    CLOUDY    72  72 100 W6        29.85R
READING        CLOUDY    74  74 100 CALM      29.82F
LANCASTER      CLOUDY    74  74 100 CALM      29.84F
COATESVILLE    CLOUDY    73  73 100 CALM      29.87S FOG
POTTSTOWN      CLOUDY    72  72 100 CALM      29.85S
BLUE BELL      CLOUDY    72  72 100 CALM      29.85R
DOYLESTOWN     CLOUDY    73  73 100 W5        29.83R
WILLOW GROVE   NOT AVBL
NORTH PHILA    CLOUDY    77  73  87 W7        29.84R
PHILADELPHIA   CLOUDY    75  73  93 SW9       29.83S
$$




USA.gov is the U.S. government's official web portal to all federal, state and local government web resources and services.